Tracking 19286 objects as of 19-Nov-2018
HD Live streaming from Space Station
objects crossing your sky now

CANX-6

Track CANX-6 now!
10-day predictions
CANX-6 is classified as:


NORAD ID: 32784
Int'l Code: 2008-021B
Perigee: 606.3 km
Apogee: 624.2 km
Inclination: 97.6 °
Period: 96.9 minutes
Semi major axis: 6986 km
RCS: 0.1943 m2 (medium)
Launch date: April 28, 2008
Source: Canada (CA)
Launch site: SRIHARIKOTA (SRI)

CanX 6 is a 14-pound [6-kg] Canadian spacecraft designed to track ships using maritime navigation signals transmitted from sea vessels.
aabbcc
Your satellite tracking list
Your tracking list is empty




NASA's NSSDC Master Catalog

Two Line Element Set (TLE):
1 32784U 08021B   18322.06113263  .00000212  00000-0  29579-4 0  9994
2 32784  97.5633 322.5448 0012790 259.6443 100.3332 14.86739907571716
Source of the keplerian elements: AFSPC